Time,TemperatureF,DewpointF,PressureIn,WindDirection,WindDirectionDegrees,WindSpeedMPH,WindSpeedGustMPH,Humidity,HourlyPrecipIn,Conditions,Clouds,dailyrainin,SoftwareType,DateUTC
2013-04-15 00:04:00,65.1,58.1,29.49,NE,45,13.0,-999.0,78,-99.99,,,0.00,Acu-Link.com,2013-04-15 05:04:00,
2013-04-15 00:19:00,64.4,56.7,29.49,NNE,22,16.1,-999.0,76,-99.99,,,0.14,Acu-Link.com,2013-04-15 05:19:00,
2013-04-15 00:34:00,64.0,54.1,29.50,NE,45,20.1,-999.0,70,-99.99,,,0.54,Acu-Link.com,2013-04-15 05:34:00,
2013-04-15 00:49:00,63.5,51.5,29.49,NNE,22,15.4,-999.0,65,-99.99,,,0.73,Acu-Link.com,2013-04-15 05:49:00,
2013-04-15 01:04:00,63.0,49.3,29.51,NE,45,12.5,-999.0,61,-99.99,,,1.18,Acu-Link.com,2013-04-15 06:04:00,
2013-04-15 01:19:00,62.6,47.6,29.51,ENE,67,17.7,-999.0,58,-99.99,,,1.33,Acu-Link.com,2013-04-15 06:19:00,
2013-04-15 01:34:00,62.2,46.8,29.52,NE,45,21.7,-999.0,57,-99.99,,,2.39,Acu-Link.com,2013-04-15 06:34:00,
2013-04-15 01:50:00,61.9,46.5,29.53,NE,45,18.1,-999.0,57,-99.99,,,2.72,Acu-Link.com,2013-04-15 06:50:00,
2013-04-15 02:05:00,61.5,45.2,29.53,NE,45,23.7,-999.0,55,-99.99,,,2.91,Acu-Link.com,2013-04-15 07:05:00,
2013-04-15 02:50:00,60.1,42.9,29.54,North,0,15.4,-999.0,53,-99.99,,,3.35,Acu-Link.com,2013-04-15 07:50:00,
2013-04-15 03:05:00,59.7,43.0,29.54,NE,45,16.6,-999.0,54,-99.99,,,3.38,Acu-Link.com,2013-04-15 08:05:00,
2013-04-15 03:21:00,59.5,42.9,29.54,NE,45,21.7,-999.0,54,-99.99,,,3.50,Acu-Link.com,2013-04-15 08:21:00,
2013-04-15 03:36:00,59.2,42.1,29.54,NE,45,15.0,-999.0,53,-99.99,,,3.65,Acu-Link.com,2013-04-15 08:36:00,
2013-04-15 03:51:00,58.8,41.7,29.54,ENE,67,10.3,-999.0,53,-99.99,,,3.70,Acu-Link.com,2013-04-15 08:51:00,
2013-04-15 04:06:00,58.6,41.6,29.55,ENE,67,20.6,-999.0,53,-99.99,,,3.75,Acu-Link.com,2013-04-15 09:06:00,
2013-04-15 04:21:00,58.3,41.7,29.55,NE,45,16.1,-999.0,54,-99.99,,,3.83,Acu-Link.com,2013-04-15 09:21:00,
2013-04-15 04:36:00,58.1,41.1,29.56,East,90,14.5,-999.0,53,-99.99,,,3.83,Acu-Link.com,2013-04-15 09:36:00,
2013-04-15 04:52:00,57.9,40.9,29.57,NE,45,17.0,-999.0,53,-99.99,,,3.83,Acu-Link.com,2013-04-15 09:52:00,
2013-04-15 05:07:00,57.2,40.2,29.57,NNE,22,11.0,-999.0,53,-99.99,,,3.86,Acu-Link.com,2013-04-15 10:07:00,
2013-04-15 05:22:00,57.2,40.2,29.57,East,90,18.1,-999.0,53,-99.99,,,3.86,Acu-Link.com,2013-04-15 10:22:00,
2013-04-15 05:37:00,56.7,40.2,29.57,NE,45,11.4,-999.0,54,-99.99,,,3.86,Acu-Link.com,2013-04-15 10:37:00,
2013-04-15 06:08:00,56.5,39.6,29.58,East,90,11.9,-999.0,53,-99.99,,,3.86,Acu-Link.com,2013-04-15 11:08:00,
2013-04-15 06:23:00,56.5,39.6,29.59,NNE,22,14.5,-999.0,53,-99.99,,,3.86,Acu-Link.com,2013-04-15 11:23:00,
2013-04-15 06:38:00,56.7,39.7,29.59,ENE,67,18.1,-999.0,53,-99.99,,,3.86,Acu-Link.com,2013-04-15 11:38:00,
2013-04-15 06:53:00,56.5,39.6,29.60,NE,45,13.4,-999.0,53,-99.99,,,3.86,Acu-Link.com,2013-04-15 11:53:00,
2013-04-15 07:09:00,56.3,39.4,29.61,ENE,67,9.4,-999.0,53,-99.99,,,3.86,Acu-Link.com,2013-04-15 12:09:00,
2013-04-15 07:24:00,56.5,39.1,29.61,East,90,9.8,-999.0,52,-99.99,,,3.86,Acu-Link.com,2013-04-15 12:24:00,
2013-04-15 07:39:00,56.8,39.4,29.62,NE,45,8.3,-999.0,52,-99.99,,,3.86,Acu-Link.com,2013-04-15 12:39:00,
2013-04-15 07:54:00,57.4,39.4,29.62,NE,45,9.4,-999.0,51,-99.99,,,3.86,Acu-Link.com,2013-04-15 12:54:00,
2013-04-15 08:09:00,58.6,39.5,29.63,ENE,67,10.3,-999.0,49,-99.99,,,3.86,Acu-Link.com,2013-04-15 13:09:00,
2013-04-15 08:25:00,59.0,39.3,29.64,NNE,22,8.3,-999.0,48,-99.99,,,3.86,Acu-Link.com,2013-04-15 13:25:00,
2013-04-15 08:40:00,60.1,39.8,29.64,East,90,8.9,-999.0,47,-99.99,,,3.86,Acu-Link.com,2013-04-15 13:40:00,
2013-04-15 08:55:00,61.0,40.1,29.64,NNE,22,14.5,-999.0,46,-99.99,,,3.86,Acu-Link.com,2013-04-15 13:55:00,
2013-04-15 09:10:00,61.0,40.1,29.65,ENE,67,15.0,-999.0,46,-99.99,,,3.86,Acu-Link.com,2013-04-15 14:10:00,
2013-04-15 09:25:00,61.7,40.1,29.66,NE,45,13.4,-999.0,45,-99.99,,,3.86,Acu-Link.com,2013-04-15 14:25:00,
2013-04-15 09:41:00,62.2,40.1,29.66,North,0,11.4,-999.0,44,-99.99,,,3.86,Acu-Link.com,2013-04-15 14:41:00,
2013-04-15 10:11:00,64.0,42.3,29.67,NNE,22,9.8,-999.0,45,-99.99,,,3.86,Acu-Link.com,2013-04-15 15:11:00,
2013-04-15 10:26:00,64.8,42.9,29.67,NE,45,13.0,-999.0,45,-99.99,,,3.86,Acu-Link.com,2013-04-15 15:26:00,
2013-04-15 10:41:00,65.1,43.2,29.67,ENE,67,11.0,-999.0,45,-99.99,,,3.86,Acu-Link.com,2013-04-15 15:41:00,
2013-04-15 10:57:00,66.9,45.5,29.68,NE,45,8.9,-999.0,46,-99.99,,,3.86,Acu-Link.com,2013-04-15 15:57:00,
2013-04-15 11:12:00,66.9,44.9,29.69,North,0,9.8,-999.0,45,-99.99,,,3.86,Acu-Link.com,2013-04-15 16:12:00,
2013-04-15 11:27:00,68.0,46.4,29.69,NE,45,11.0,-999.0,46,-99.99,,,3.86,Acu-Link.com,2013-04-15 16:27:00,
2013-04-15 11:42:00,68.4,46.8,29.69,NE,45,9.8,-999.0,46,-99.99,,,3.86,Acu-Link.com,2013-04-15 16:42:00,
2013-04-15 11:57:00,69.4,47.7,29.69,NE,45,11.0,-999.0,46,-99.99,,,3.86,Acu-Link.com,2013-04-15 16:57:00,
2013-04-15 12:13:00,70.2,48.4,29.69,NE,45,8.3,-999.0,46,-99.99,,,3.86,Acu-Link.com,2013-04-15 17:13:00,
2013-04-15 12:28:00,71.1,49.8,29.69,NE,45,11.4,-999.0,47,-99.99,,,3.86,Acu-Link.com,2013-04-15 17:28:00,
2013-04-15 12:43:00,71.4,50.7,29.69,NNE,22,8.3,-999.0,48,-99.99,,,3.86,Acu-Link.com,2013-04-15 17:43:00,
2013-04-15 12:58:00,72.7,50.7,29.69,East,90,7.4,-999.0,46,-99.99,,,3.86,Acu-Link.com,2013-04-15 17:58:00,
2013-04-15 13:14:00,73.9,51.2,29.69,ESE,112,2.2,-999.0,45,-99.99,,,3.86,Acu-Link.com,2013-04-15 18:14:00,
2013-04-15 13:29:00,74.3,51.0,29.69,ESE,112,4.7,-999.0,44,-99.99,,,3.86,Acu-Link.com,2013-04-15 18:29:00,
2013-04-15 13:44:00,74.7,53.1,29.68,NE,45,4.3,-999.0,47,-99.99,,,3.86,Acu-Link.com,2013-04-15 18:44:00,
2013-04-15 13:59:00,75.6,52.1,29.68,NW,315,1.6,-999.0,44,-99.99,,,3.86,Acu-Link.com,2013-04-15 18:59:00,
2013-04-15 14:14:00,75.7,52.9,29.67,SE,135,2.7,-999.0,45,-99.99,,,3.86,Acu-Link.com,2013-04-15 19:14:00,
2013-04-15 14:30:00,75.7,52.3,29.67,North,0,4.7,-999.0,44,-99.99,,,3.86,Acu-Link.com,2013-04-15 19:30:00,
2013-04-15 14:45:00,77.0,52.8,29.67,SSE,157,0.0,-999.0,43,-99.99,,,3.86,Acu-Link.com,2013-04-15 19:45:00,
2013-04-15 15:00:00,75.7,52.3,29.66,NNW,337,5.8,-999.0,44,-99.99,,,3.86,Acu-Link.com,2013-04-15 20:00:00,
2013-04-15 15:15:00,78.1,53.1,29.66,ENE,67,1.6,-999.0,42,-99.99,,,3.86,Acu-Link.com,2013-04-15 20:15:00,
2013-04-15 15:30:00,78.6,53.6,29.66,NE,45,5.8,-999.0,42,-99.99,,,3.86,Acu-Link.com,2013-04-15 20:30:00,
2013-04-15 15:45:00,79.2,54.1,29.66,SE,135,6.7,-999.0,42,-99.99,,,3.86,Acu-Link.com,2013-04-15 20:45:00,
2013-04-15 16:01:00,79.3,52.9,29.66,ESE,112,7.4,-999.0,40,-99.99,,,3.86,Acu-Link.com,2013-04-15 21:01:00,
2013-04-15 16:16:00,80.1,53.5,29.65,NE,45,4.3,-999.0,40,-99.99,,,3.86,Acu-Link.com,2013-04-15 21:16:00,
2013-04-15 16:31:00,79.5,53.7,29.64,SSE,157,6.3,-999.0,41,-99.99,,,3.86,Acu-Link.com,2013-04-15 21:31:00,
2013-04-15 16:46:00,80.6,53.3,29.64,ESE,112,2.7,-999.0,39,-99.99,,,3.86,Acu-Link.com,2013-04-15 21:46:00,
2013-04-15 17:01:00,81.3,54.0,29.64,East,90,5.1,-999.0,39,-99.99,,,3.86,Acu-Link.com,2013-04-15 22:01:00,
2013-04-15 17:16:00,81.1,53.8,29.64,East,90,3.8,-999.0,39,-99.99,,,3.86,Acu-Link.com,2013-04-15 22:16:00,
2013-04-15 17:32:00,81.7,54.3,29.63,East,90,5.1,-999.0,39,-99.99,,,3.86,Acu-Link.com,2013-04-15 22:32:00,
2013-04-15 17:47:00,80.2,53.7,29.62,NNE,22,4.3,-999.0,40,-99.99,,,3.86,Acu-Link.com,2013-04-15 22:47:00,
2013-04-15 18:02:00,81.1,55.2,29.61,East,90,4.7,-999.0,41,-99.99,,,3.86,Acu-Link.com,2013-04-15 23:02:00,
2013-04-15 18:17:00,79.3,55.5,29.61,East,90,5.1,-999.0,44,-99.99,,,3.86,Acu-Link.com,2013-04-15 23:17:00,
2013-04-15 18:32:00,79.7,55.2,29.60,East,90,6.3,-999.0,43,-99.99,,,3.86,Acu-Link.com,2013-04-15 23:32:00,
2013-04-15 18:48:00,77.7,55.9,29.60,ENE,67,7.4,-999.0,47,-99.99,,,3.86,Acu-Link.com,2013-04-15 23:48:00,
2013-04-15 19:03:00,76.1,56.6,29.60,East,90,8.9,-999.0,51,-99.99,,,3.86,Acu-Link.com,2013-04-16 00:03:00,
2013-04-15 19:18:00,74.5,56.7,29.60,NE,45,8.9,-999.0,54,-99.99,,,3.86,Acu-Link.com,2013-04-16 00:18:00,
2013-04-15 19:33:00,72.9,56.2,29.60,ENE,67,11.9,-999.0,56,-99.99,,,3.86,Acu-Link.com,2013-04-16 00:33:00,
2013-04-15 19:48:00,71.6,56.5,29.60,NE,45,6.3,-999.0,59,-99.99,,,3.86,Acu-Link.com,2013-04-16 00:48:00,
2013-04-15 20:04:00,70.2,56.5,29.62,NE,45,7.8,-999.0,62,-99.99,,,3.86,Acu-Link.com,2013-04-16 01:04:00,
2013-04-15 20:19:00,68.9,56.2,29.62,ENE,67,8.3,-999.0,64,-99.99,,,3.86,Acu-Link.com,2013-04-16 01:19:00,
2013-04-15 20:34:00,68.2,55.5,29.63,NE,45,8.9,-999.0,64,-99.99,,,3.86,Acu-Link.com,2013-04-16 01:34:00,
2013-04-15 20:49:00,67.6,55.9,29.63,ENE,67,13.4,-999.0,66,-99.99,,,3.86,Acu-Link.com,2013-04-16 01:49:00,
2013-04-15 21:04:00,66.6,55.3,29.65,ESE,112,11.0,-999.0,67,-99.99,,,3.86,Acu-Link.com,2013-04-16 02:04:00,
2013-04-15 21:19:00,65.8,55.0,29.66,ENE,67,12.5,-999.0,68,-99.99,,,3.86,Acu-Link.com,2013-04-16 02:19:00,
2013-04-15 21:35:00,64.9,54.9,29.67,ENE,67,15.4,-999.0,70,-99.99,,,3.86,Acu-Link.com,2013-04-16 02:35:00,
2013-04-15 21:50:00,64.4,54.8,29.68,NE,45,17.0,-999.0,71,-99.99,,,3.86,Acu-Link.com,2013-04-16 02:50:00,
2013-04-15 22:05:00,63.5,54.7,29.68,East,90,22.1,-999.0,73,-99.99,,,3.86,Acu-Link.com,2013-04-16 03:05:00,
2013-04-15 22:20:00,62.6,54.2,29.68,East,90,25.3,-999.0,74,-99.99,,,4.02,Acu-Link.com,2013-04-16 03:20:00,
2013-04-15 22:35:00,61.5,53.9,29.68,NE,45,17.0,-999.0,76,-99.99,,,4.30,Acu-Link.com,2013-04-16 03:35:00,
2013-04-15 22:51:00,59.4,50.3,29.70,ENE,67,18.1,-999.0,72,-99.99,,,4.49,Acu-Link.com,2013-04-16 03:51:00,
2013-04-15 23:06:00,57.9,47.8,29.70,NE,45,13.0,-999.0,69,-99.99,,,4.51,Acu-Link.com,2013-04-16 04:06:00,
2013-04-15 23:21:00,57.2,47.1,29.70,NE,45,11.0,-999.0,69,-99.99,,,4.56,Acu-Link.com,2013-04-16 04:21:00,
2013-04-15 23:36:00,56.5,46.0,29.70,ENE,67,13.4,-999.0,68,-99.99,,,4.69,Acu-Link.com,2013-04-16 04:36:00,
2013-04-15 23:51:00,56.1,45.7,29.69,ENE,67,15.0,-999.0,68,-99.99,,,4.76,Acu-Link.com,2013-04-16 04:51:00,